DW9353 Weather Reports


time (UTC)temp
F
wind
direction
speed
knots
gust
knots
rain 1hr
in
rain 24hr
in
rain mn
in
humidity
%
barometer
mb
20260505011504 63 232 2.6 8.7 0.00 0.00 0.00 47 1007.2
20260505011004 63 225 2.6 9.6 0.00 0.00 0.00 47 1007.2
20260505010503 63 235 1.7 9.6 0.00 0.00 0.00 48 1007.1
20260505010004 63 228 2.6 9.6 0.00 0.00 0.00 47 1007.0
20260505005503 62 232 2.6 9.6 0.00 0.00 0.00 47 1006.8
20260505005004 62 266 1.7 7.0 0.00 0.00 0.00 49 1006.6
20260505004504 61 233 0.9 7.8 0.00 0.00 0.00 49 1006.6
20260505004004 61 235 0.0 7.8 0.00 0.00 0.00 50 1006.4
20260505003503 61 242 0.0 0.9 0.00 0.00 0.00 52 1006.2
20260505003004 62 231 0.0 2.6 0.00 0.00 0.00 49 1006.1
20260505002503 62 226 0.9 3.5 0.00 0.00 0.00 48 1006.0
20260505002004 62 221 0.0 3.5 0.00 0.00 0.00 48 1005.9
20260505001504 63 212 0.9 2.6 0.00 0.00 0.00 46 1005.8
20260505001004 63 207 0.9 2.6 0.00 0.00 0.00 46 1005.8
20260505000004 64 203 0.0 1.7 0.00 0.00 0.00 44 1005.6
20260504235503 65 211 0.0 1.7 0.00 0.00 0.00 42 1005.5
20260504235003 66 211 0.0 1.7 0.00 0.00 0.00 42 1005.4
20260504234503 66 228 0.9 6.1 0.00 0.00 0.00 39 1005.4
20260504234003 67 228 0.9 6.1 0.00 0.00 0.00 40 1005.3
20260504233504 68 242 0.0 2.6 0.00 0.00 0.00 37 1005.3
20260504233004 68 238 0.9 3.5 0.00 0.00 0.00 38 1005.3
20260504232504 68 242 0.9 6.1 0.00 0.00 0.00 36 1005.2
20260504232004 69 245 0.9 7.0 0.00 0.00 0.00 34 1005.1
20260504231503 69 240 0.9 7.0 0.00 0.00 0.00 34 1004.9
20260504231003 69 240 1.7 7.8 0.00 0.00 0.00 34 1005.0
20260504230503 69 245 2.6 7.8 0.00 0.00 0.00 33 1004.9
20260504230004 70 263 1.7 7.8 0.00 0.00 0.00 34 1004.8
20260504225503 70 255 1.7 6.1 0.00 0.00 0.00 33 1004.7
20260504225004 70 234 1.7 6.1 0.00 0.00 0.00 34 1004.7
20260504224503 70 240 0.9 4.3 0.00 0.00 0.00 34 1004.6
20260504224004 70 252 1.7 4.3 0.00 0.00 0.00 34 1004.6
20260504223004 70 272 1.7 8.7 0.00 0.00 0.00 33 1004.4
20260504222503 70 261 1.7 7.8 0.00 0.00 0.00 33 1004.5
20260504222003 70 262 1.7 7.8 0.00 0.00 0.00 34 1004.5
20260504221503 71 255 2.6 10.4 0.00 0.00 0.00 33 1004.6
20260504221004 71 266 2.6 10.4 0.00 0.00 0.00 33 1004.6
20260504220504 71 252 2.6 7.0 0.00 0.00 0.00 32 1004.6
20260504220004 71 236 1.7 9.6 0.00 0.00 0.00 33 1004.7
20260504215504 71 232 1.7 9.6 0.00 0.00 0.00 33 1004.5
20260504215003 71 260 2.6 9.6 0.00 0.00 0.00 33 1004.6
20260504214503 71 263 3.5 10.4 0.00 0.00 0.00 32 1004.5
20260504214003 72 245 3.5 10.4 0.00 0.00 0.00 31 1004.5
20260504213503 72 237 1.7 9.6 0.00 0.00 0.00 31 1004.5
20260504213004 72 240 0.9 6.1 0.00 0.00 0.00 32 1004.6
20260504212504 72 251 1.7 7.8 0.00 0.00 0.00 31 1004.6
20260504212004 72 241 1.7 7.8 0.00 0.00 0.00 31 1004.6
20260504211503 72 244 3.5 15.6 0.00 0.00 0.00 32 1004.7
20260504210503 72 248 2.6 13.9 0.00 0.00 0.00 31 1004.6
20260504210004 72 253 2.6 12.2 0.00 0.00 0.00 31 1004.7
20260504205004 71 255 1.7 13.0 0.00 0.00 0.00 31 1004.4
20260504204503 71 285 0.9 4.3 0.00 0.00 0.00 32 1004.5
20260504204004 71 272 1.7 10.4 0.00 0.00 0.00 34 1004.5
20260504203503 71 276 2.6 10.4 0.00 0.00 0.00 33 1004.6
20260504203004 71 263 3.5 13.0 0.00 0.00 0.00 31 1004.4
20260504202503 71 257 3.5 16.5 0.00 0.00 0.00 32 1004.6
20260504202004 71 264 2.6 16.5 0.00 0.00 0.00 32 1004.6
20260504201004 72 242 2.6 13.9 0.00 0.00 0.00 30 1004.5
20260504200503 72 242 3.5 13.9 0.00 0.00 0.00 30 1004.5
20260504195503 72 269 3.5 9.6 0.00 0.00 0.00 31 1004.5
20260504195003 73 251 3.5 10.4 0.00 0.00 0.00 30 1004.5
20260504194503 73 245 3.5 14.8 0.00 0.00 0.00 27 1004.5
20260504194003 73 239 3.5 14.8 0.00 0.00 0.00 31 1004.5
20260504193004 73 231 4.3 13.9 0.00 0.00 0.00 28 1004.6
20260504192503 73 238 3.5 11.3 0.00 0.00 0.00 27 1004.7
20260504192004 73 245 3.5 13.9 0.00 0.00 0.00 27 1004.6
20260504191503 73 249 3.5 13.9 0.00 0.00 0.00 30 1004.6
20260504191003 72 258 3.5 13.0 0.00 0.00 0.00 28 1004.7
20260504190504 72 251 2.6 13.0 0.00 0.00 0.00 31 1004.7
20260504190004 72 241 3.5 16.5 0.00 0.00 0.00 30 1004.8
20260504185503 72 240 4.3 16.5 0.00 0.00 0.00 31 1004.7
20260504184503 71 247 2.6 13.9 0.00 0.00 0.00 30 1004.9
20260504184004 72 252 3.5 13.9 0.00 0.00 0.00 28 1004.9
20260504183503 71 255 3.5 10.4 0.00 0.00 0.00 31 1005.2
20260504182504 71 239 2.6 12.2 0.00 0.00 0.00 31 1005.1
20260504182004 71 236 3.5 12.2 0.00 0.00 0.00 32 1005.1
20260504181503 72 254 4.3 16.5 0.00 0.00 0.00 30 1005.1
20260504181004 72 261 3.5 16.5 0.00 0.00 0.00 33 1005.1
20260504180503 72 228 2.6 10.4 0.00 0.00 0.00 33 1005.0
20260504180004 72 215 3.5 14.8 0.00 0.00 0.00 31 1005.1
20260504175504 72 226 3.5 14.8 0.00 0.00 0.00 31 1005.1
20260504175004 72 250 3.5 12.2 0.00 0.00 0.00 30 1005.2
20260504174504 72 239 3.5 11.3 0.00 0.00 0.00 31 1005.1
20260504174004 72 239 3.5 17.4 0.00 0.00 0.00 30 1005.2
20260504173503 72 252 4.3 19.1 0.00 0.00 0.00 31 1005.4
20260504173004 72 258 3.5 19.1 0.00 0.00 0.00 31 1005.3
20260504172503 71 244 4.3 15.6 0.00 0.00 0.00 34 1005.3
20260504172004 71 237 3.5 15.6 0.00 0.00 0.00 32 1005.3
20260504171504 71 258 2.6 12.2 0.00 0.00 0.00 32 1005.4
20260504171004 70 251 4.3 9.6 0.00 0.00 0.00 33 1005.4
20260504151004 67 254 3.5 14.8 0.00 0.00 0.00 36 1006.4
20260504150504 66 246 3.5 14.8 0.00 0.00 0.00 39 1006.5
20260504141003 63 242 5.2 16.5 0.00 0.01 0.00 39 1007.5
20260504130503 59 249 2.6 13.0 0.00 0.01 0.00 46 1008.0
20260504110503 46 231 0.9 4.3 0.00 0.01 0.00 69 1008.9
20260504100503 40 230 0.0 6.1 0.00 0.01 0.00 81 1008.7
20260504082004 41 0 0.0 0.0 0.00 0.01 0.00 81 1008.7
20260504081504 41 0 0.0 0.0 0.00 0.01 0.00 80 1008.6
20260504081004 41 0 0.0 0.0 0.00 0.01 0.00 80 1008.7
20260504080503 41 0 0.0 0.0 0.00 0.01 0.00 82 1008.7
20260504050004 34 0 0.0 0.0 0.00 0.01 0.00 87 1008.5
20260504045503 34 0 0.0 0.0 0.00 0.01 0.00 87 1008.6
20260504044004 35 0 0.0 0.0 0.00 0.01 0.00 89 1008.6
20260504043003 35 0 0.0 0.0 0.00 0.02 0.00 87 1008.6
20260504042503 35 0 0.0 0.0 0.00 0.02 0.00 89 1008.6
20260504042004 35 350 0.0 0.9 0.00 0.02 0.00 87 1008.6
20260504041504 35 350 0.0 0.9 0.00 0.03 0.00 87 1008.5
20260504035503 35 0 0.0 0.0 0.00 0.03 0.03 86 1008.4
20260504035003 35 0 0.0 0.0 0.00 0.03 0.03 86 1008.4
20260504034503 35 0 0.0 0.0 0.00 0.03 0.03 86 1008.4
20260504034004 35 0 0.0 0.0 0.00 0.03 0.03 86 1008.3
20260504033004 35 0 0.0 0.0 0.00 0.03 0.03 86 1008.3
20260504032504 35 0 0.0 0.0 0.00 0.03 0.03 85 1008.3
20260504032004 36 0 0.0 0.0 0.00 0.03 0.03 85 1008.3
20260504031004 36 0 0.0 0.0 0.00 0.03 0.03 84 1008.3
20260504030503 36 0 0.0 0.0 0.00 0.03 0.03 84 1008.3
20260504030004 36 0 0.0 0.0 0.00 0.03 0.03 83 1008.2
20260504025503 36 0 0.0 0.0 0.00 0.03 0.03 83 1008.3
20260504025003 37 0 0.0 0.0 0.00 0.03 0.03 83 1008.2
20260504024003 37 0 0.0 0.0 0.00 0.03 0.03 82 1008.2
20260504023503 37 0 0.0 0.0 0.00 0.03 0.03 81 1008.2
20260504023003 38 0 0.0 0.0 0.00 0.03 0.03 80 1008.2
20260504022503 38 0 0.0 0.0 0.00 0.03 0.03 80 1008.2
20260504022003 38 0 0.0 0.0 0.00 0.03 0.03 80 1008.1
20260504021503 38 0 0.0 0.0 0.00 0.03 0.03 79 1008.1
20260504021003 38 0 0.0 0.0 0.00 0.03 0.03 79 1008.1
20260504020504 39 0 0.0 0.0 0.00 0.03 0.03 78 1008.0
20260504015503 39 0 0.0 0.0 0.00 0.03 0.03 76 1008.0
20260504015003 40 0 0.0 0.0 0.00 0.03 0.03 75 1008.0
20260504014503 40 0 0.0 0.0 0.00 0.03 0.03 74 1007.9
20260504014003 40 0 0.0 0.0 0.00 0.03 0.03 73 1007.9
20260504013004 41 0 0.0 0.0 0.00 0.03 0.03 71 1007.9
20260504012503 41 0 0.0 0.0 0.00 0.03 0.03 70 1007.9